Vertical_Velocity
-1 -2 2 1 1 1 1 -0 -1 -2 -1 -4 -3 1 -3 -5 2 0 -0 -3 -2 -1
-1 -3 0 -0 3 1 2 -0 -1 1 -3 -2 -4 -2 1 -3 -1 3 1 0 -2 -1
1 0 1 0 -0 -1 3 3 1 2 3 3 2 4 0 3 -6 -4 -4 -1 1 -0
-2 -2 -1 0 2 4 5 0 -0 0 -4 3 -1 1 -4 -1 6 -0 -7 -0 -2 2
3 1 -0 -1 4 7 2 2 -0 -9 -9 -5 1 -12 -1 -3 1 -1 2 -4 -5 -1
-4 -4 -3 4 2 6 -9 -3 -1 -3 -4 -3 1 -6 -9 1 2 -3 0 3 -4 -2
-3 5 6 4 1 4 5 -1 5 3 7 -3 1 3 -2 -4 2 -3 -3 1 -2 -0
11 2 3 -0 -5 8 9 1 7 3 1 1 -2 2 5 1 1 -2 -1 -0 1 -1
2 2 4 2 -5 6 -6 -5 2 -0 -3 3 -1 -1 -4 -5 -3 -3 -1 -4 3 -1
-2 -0 -4 5 5 2 6 14 4 -1 3 2 8 6 3 2 -8 -2 1 1 3 -3
-2 3 3 2 1 1 0 -2 -6 -6 2 -1 -2 3 -2 4 8 7 1 2 4 3
1 1 2 -2 -1 3 1 -2 -0 5 0 0 -4 -1 3 -1 -1 4 6 4 -5 -2
0 -0 0 1 -1 7 4 -0 -4 1 3 4 -0 3 1 1 -8 -10 -13 -16 4 -7
1 0 2 2 3 2 3 3 3 3 4 4 8 4 4 5 -4 1 3 5 -4 -8
Height
1560 1563 1566 1568 1570 1571 1573 1575 1576 1578 1580 1580 1581 1581 1582 1581 1581 1581 1581 1581 1581 1581
1552 1555 1559 1564 1566 1568 1570 1571 1573 1574 1575 1576 1576 1577 1577 1578 1578 1579 1578 1578 1578 1578
1545 1549 1553 1557 1560 1563 1566 1566 1567 1568 1570 1571 1572 1571 1572 1573 1573 1574 1575 1574 1573 1573
1538 1543 1547 1550 1553 1555 1558 1560 1563 1565 1567 1567 1567 1569 1568 1569 1567 1567 1569 1570 1572 1571
1533 1537 1540 1542 1545 1549 1553 1554 1556 1557 1558 1561 1562 1563 1565 1564 1563 1562 1562 1565 1566 1567
1525 1527 1530 1534 1537 1543 1547 1548 1549 1551 1553 1554 1556 1556 1558 1558 1558 1559 1560 1559 1560 1562
1516 1518 1522 1527 1531 1534 1537 1539 1540 1543 1543 1547 1548 1548 1550 1551 1553 1553 1554 1554 1554 1556
1507 1512 1514 1519 1524 1526 1527 1531 1533 1534 1535 1536 1538 1540 1542 1542 1545 1546 1547 1548 1547 1549
1500 1502 1506 1512 1514 1516 1521 1520 1522 1524 1526 1528 1529 1531 1532 1531 1535 1538 1539 1540 1541 1543
1490 1493 1498 1501 1506 1509 1508 1511 1514 1519 1519 1520 1524 1526 1527 1527 1527 1529 1531 1532 1532 1534
1481 1483 1487 1490 1495 1498 1501 1503 1506 1509 1511 1512 1515 1519 1521 1525 1525 1523 1523 1525 1526 1527
1473 1476 1478 1481 1484 1487 1490 1493 1494 1497 1500 1503 1506 1509 1512 1514 1513 1516 1517 1518 1519 1521
1468 1469 1471 1474 1477 1480 1484 1487 1488 1489 1491 1493 1496 1499 1501 1502 1505 1508 1510 1511 1511 1510
1463 1464 1467 1469 1471 1472 1475 1479 1481 1482 1483 1485 1486 1488 1489 1488 1487 1490 1495 1493 1496 1503